Location: Altleiningen
(49.5078°N, 8.0741°E)
Time: 05:16:04
(UTC+00:00)

Cosmos 2322 Rocket - Pass Details

Date: 03 March 2021
Orbit: 832 x 852 km, 71.0° (Epoch: 11 April)

Event Time Altitude Azimuth Distance (km) Brightness Sun altitude
Rises 19:07:46 0° 225° (SW) 3,367 5.8 -19.2°
Reaches altitude 10° 19:10:17 10° 231° (SW) 2,438 5.1 -19.6°
Maximum altitude 19:15:41 49° 306° (NW) 1,072 3.1 -20.4°
Drops below altitude 10° 19:21:09 10° 21° (NNE) 2,459 4.6 -21.3°
Sets 19:23:42 0° 27° (NNE) 3,400 5.2 -21.7°
